Weather Roundup
Issued by NWS Chicago, IL

Home | Current Version | Previous Version | Graphics & Text | Print | Product List | Glossary On
Versions: 1 2 3 4 5 6 7 8 9 10 11 12 13 14 15 16 17 18 19 20 21 22 23 24 25 26 27 28 29 30 31 32 33 34 35 36 37 38 39 40 41 42 43 44 45 46 47 48 49 50
871
NZUS59 KLOT 070403
HRRLOT

CHICAGO AREA WEATHER ROUNDUP
NATIONAL WEATHER SERVICE CHICAGO/ROMEOVILLE IL
1000 PM CST SAT FEB 06 2016

NOTE: "FAIR" INDICATES FEW OR NO CLOUDS BELOW 12,000 FEET WITH NO
SIGNIFICANT WEATHER AND/OR OBSTRUCTIONS TO VISIBILITY.

* THESE STATIONS ARE NOT UNDER NWS QUALITY CONTROL. THEY ALSO MAY NOT
  REPORT WEATHER SUCH AS PRECIPITATION OR FOG.

ILZ005-006-012>014-019>023-070500-
NORTHEAST ILLINOIS

CITY           SKY/WX    TMP DP  RH WIND       PRES   REMARKS
OHARE          PTCLDY    33  28  81 S8        30.07F WCI  26
MIDWAY         CLEAR     35  27  72 S7        30.09F WCI  29
AURORA         CLEAR     33  28  81 S5        30.08F WCI  29
LANSING*       CLEAR     31  27  88 S5        30.11F WCI  26
WAUKEGAN       CLEAR     30  26  85 SW7       30.05F WCI  23
DUPAGE AIRPORT CLEAR     30  25  81 S5        30.07F WCI  25
WHEELING       CLEAR     28  25  88 S5        30.08F WCI  23
$$

WIZ051-052-058>065-066-070>072-070500-
SOUTHEAST WISCONSIN

CITY           SKY/WX    TMP DP  RH WIND       PRES   REMARKS
MILWAUKEE      CLOUDY    32  27  81 SW10      30.03F WCI  24
KENOSHA*       CLEAR     31  26  82 SW6       30.05F WCI  25
RACINE*        CLEAR     32  26  78 SW7       30.06F WCI  26
BURLINGTON     PTCLDY    29  26  88 S5        30.03F WCI  24
$$

INZ001>003-010>013-019-020-070500-
NORTHWEST INDIANA

CITY           SKY/WX    TMP DP  RH WIND       PRES   REMARKS
GARY*          CLEAR     36  28  75 S5        30.11F
MICHIGAN CITY* NOT AVBL
RENSSELAER*    NOT AVBL
VALPARAISO     CLEAR     33  27  78 S5        30.12F WCI  29
$$

LMZ740>746-070500-
SOUTHERN LAKE MICHIGAN

STATION/POSITION TIME  SKY/WX   TEMP WIND        PRES    VSBY
                                AIR  DIR/SP/G
                 (UTC)          (F)  (DEG/KT/KT) (MB)    (MI)
HARRISON CRIB    0300            39  200/ 12/ 13   N/A
BURNHAM HARBOR   0400            38  200/  6/  9   N/A
CALUMET HARBOR   0300            35  180/  4/  8 1019.0F
BURNS HARBOR     0300            36  190/ 10/ 13 1020.3F
MICHIGAN CITY    0300            37  160/ 13/ 15   N/A
$$

ABBREVIATIONS USED IN REMARKS
   TC - TEMPERATURE IN CELSIUS
  WCI - WIND CHILL INDEX
   HX - HEAT INDEX
  VSB - VISIBILITY
$$




USA.gov is the U.S. government's official web portal to all federal, state and local government web resources and services.